Wetbulb
64.81 65.03 65.90 65.61 65.83 65.33 64.96 64.65 63.88 63.72 64.41 64.31 63.28 63.52 64.87 65.29 64.91 65.07 63.74 63.52 63.38 62.46 61.82 60.11 59.69 60.51 59.83 59.51 60.58 60.31 60.17 59.62 57.90 60.07 61.42 63.33 62.82 62.16 62.51 62.64 60.50 58.57 57.11
63.42 63.73 64.82 65.62 65.78 65.58 64.64 65.57 64.40 62.15 64.33 64.32 64.66 64.08 64.51 64.14 65.22 63.66 62.97 63.46 62.20 61.47 61.05 59.86 59.22 59.86 58.95 58.81 60.29 59.05 59.64 59.51 59.61 57.93 59.34 61.26 60.90 59.62 59.42 59.79 57.71 56.94 55.83
61.74 62.52 64.29 64.95 64.83 65.16 63.74 65.66 65.60 62.88 63.74 64.14 64.22 64.20 64.04 64.21 63.61 63.99 63.37 63.16 62.54 61.59 60.64 59.39 59.18 59.18 58.81 58.82 59.10 58.17 58.16 61.15 60.43 59.51 58.66 58.83 58.90 57.27 56.89 59.83 59.91 58.78 58.47
60.77 61.87 62.80 64.45 64.62 65.29 64.50 65.60 64.95 65.51 63.16 63.24 63.91 63.73 64.40 64.50 64.75 64.09 64.03 63.32 63.13 61.66 61.31 60.55 59.85 59.88 59.95 59.98 59.19 59.14 61.43 60.28 59.87 58.72 58.56 57.34 57.42 59.20 57.01 58.10 58.67 59.05 58.09
60.29 61.04 62.41 64.45 65.29 65.44 64.55 64.16 64.94 64.95 64.26 63.27 63.30 64.45 64.65 65.03 65.30 64.02 63.92 62.86 62.23 61.81 61.85 61.81 61.12 60.60 59.58 60.37 62.09 61.10 61.88 59.55 58.67 57.49 56.49 57.28 57.63 57.58 57.38 58.58 57.29 57.62 57.88
60.39 59.93 61.60 61.71 62.76 65.11 65.13 64.51 63.47 63.09 63.12 62.59 62.34 62.29 61.72 58.42 50.31 56.11 62.95 64.01 63.54 63.13 62.74 61.67 60.19 57.25 55.98 54.46 55.62 54.83 58.33 58.44 57.68 57.10 56.90 55.89 55.87 57.70 57.91 57.30 57.55 56.04 54.77
60.11 59.67 60.72 61.06 60.97 63.15 63.83 63.87 63.73 64.16 64.55 62.34 61.38 60.96 60.46 57.06 48.90 50.80 56.43 62.82 61.46 61.10 60.99 60.63 60.49 60.52 58.67 57.93 51.77 51.90 51.92 51.57 55.24 62.27 58.65 58.48 58.98 59.66 59.13 58.61 57.61 57.23 57.55
59.75 59.13 59.68 60.01 60.01 61.34 62.31 63.30 64.22 64.64 64.57 62.91 61.57 61.21 59.74 53.69 48.65 49.66 56.35 63.69 63.53 62.79 62.77 61.09 58.34 60.32 57.85 60.01 59.81 59.61 59.43 59.66 59.59 61.45 61.41 60.42 57.85 56.81 59.87 61.34 60.47 59.97 60.08
59.20 59.43 58.55 59.68 60.29 60.35 61.53 63.12 64.68 65.13 64.58 63.91 62.61 61.47 59.51 57.27 47.80 48.13 57.65 63.08 63.00 62.31 60.61 60.01 62.68 59.64 47.56 47.62 60.03 58.88 58.91 55.76 47.54 46.02 45.15 44.24 43.37 43.22 46.57 56.61 56.15 55.49 54.12
59.33 60.14 59.26 58.78 60.81 60.86 62.81 63.60 64.73 65.72 64.57 63.06 62.86 62.60 57.95 59.10 44.76 45.06 50.46 61.61 61.08 59.96 59.00 53.12 48.40 54.87 44.51 45.98 58.42 58.76 57.30 57.85 53.35 50.69 51.72 47.71 45.43 49.49 44.95 51.65 52.16 49.87 48.73
60.70 61.01 60.59 59.83 60.99 62.37 64.11 64.19 64.73 64.58 63.64 64.22 62.50 63.42 62.30 59.74 54.12 44.76 44.23 57.30 58.99 56.74 55.96 54.95 50.40 43.51 42.11 42.22 46.93 56.44 51.17 51.52 54.31 55.49 54.71 55.86 57.14 57.08 54.00 52.94 53.60 51.17 48.98
61.11 60.66 60.77 61.35 59.48 62.29 63.47 63.22 63.55 63.50 64.07 62.43 62.49 61.41 62.08 61.47 53.18 43.03 42.04 43.89 45.08 57.22 54.09 54.31 48.84 40.52 40.76 41.24 45.12 41.97 43.06 48.19 53.39 53.71 54.33 55.14 56.64 55.71 54.78 56.35 56.27 54.93 53.98
61.43 61.27 61.69 60.93 60.60 61.72 62.13 62.15 61.71 62.62 61.28 59.53 59.71 58.88 58.95 60.32 56.03 45.69 41.80 42.18 45.20 55.54 54.34 49.90 40.84 39.76 40.65 40.42 39.65 41.60 42.87 52.03 53.46 53.91 55.12 56.98 56.77 56.40 52.28 53.94 53.94 53.76 54.40
61.97 62.14 61.79 60.17 59.89 61.10 61.50 61.90 60.20 59.71 59.27 58.99 57.91 57.29 57.72 58.15 58.54 54.25 51.83 49.44 44.01 52.15 46.87 45.69 44.27 45.99 46.47 48.76 46.04 42.49 50.40 53.18 53.88 55.31 56.05 55.46 52.94 51.90 49.97 50.74 49.48 49.41 48.22
62.53 62.09 61.69 60.81 59.45 60.88 61.05 61.18 60.09 60.49 58.23 58.67 58.01 57.85 57.82 56.94 57.89 52.84 52.18 54.42 56.57 55.12 57.42 55.16 55.08 54.92 54.02 53.98 54.95 55.42 55.70 55.26 55.63 56.60 55.16 52.50 51.00 50.10 48.14 48.57 47.29 46.36 45.19
62.37 61.92 61.40 60.87 59.37 60.72 60.18 60.39 46.31 49.54 45.55 44.04 44.66 54.15 59.46 53.18 45.14 45.13 45.21 45.73 45.83 45.00 53.36 56.67 56.42 56.72 56.59 56.71 56.59 57.39 56.15 54.28 54.89 52.31 49.75 48.48 47.32 46.82 45.73 46.76 46.23 45.55 44.39
62.56 62.31 61.00 59.57 60.17 59.13 59.72 59.71 57.52 51.43 42.99 41.78 44.54 44.53 48.89 48.79 44.14 43.57 44.01 43.38 42.04 43.19 54.47 56.22 58.21 58.93 59.03 59.88 56.27 54.39 51.18 51.49 50.23 49.25 48.34 47.22 46.78 46.41 44.85 45.17 45.54 44.83 43.62
63.56 53.06 61.90 60.44 61.44 59.60 59.71 59.56 59.82 57.69 56.27 54.44 44.49 48.34 42.01 40.34 40.72 40.73 40.33 44.49 50.04 49.36 56.03 56.06 58.26 59.63 59.81 56.72 53.78 50.43 49.90 49.45 48.60 47.92 47.26 46.69 46.08 45.52 45.04 44.29 44.21 43.36 42.66
63.41 62.77 62.57 61.89 61.35 59.51 59.81 59.61 59.22 59.22 57.75 57.75 53.29 47.56 40.36 38.42 38.79 38.91 40.93 55.59 54.59 54.39 54.59 56.44 60.51 59.06 54.95 53.01 51.46 50.60 49.37 48.38 48.08 47.42 47.35 46.92 46.02 44.73 44.36 43.95 43.16 38.22 39.20
64.25 55.94 57.63 62.39 61.09 61.23 60.18 59.61 58.25 57.81 58.48 57.61 57.72 54.67 50.84 48.60 52.17 52.42 52.56 55.57 56.52 57.71 58.32 59.50 57.27 54.32 53.32 50.84 49.00 49.43 47.51 47.29 47.00 46.77 45.57 45.56 46.07 45.24 44.05 43.72 43.24 41.85 41.04
65.13 63.04 54.44 61.90 62.55 60.70 61.12 59.75 59.60 58.78 57.97 58.09 57.55 56.25 45.20 53.21 52.93 53.37 53.19 54.39 55.56 57.12 60.25 57.22 54.72 52.84 51.69 51.46 50.01 47.77 47.60 46.20 44.54 44.76 45.34 45.51 45.59 43.78 44.68 43.89 43.08 42.35 41.17
65.13 64.67 62.39 61.88 61.75 61.22 60.25 61.12 60.28 59.70 59.34 58.43 58.47 52.67 40.67 53.99 54.92 54.82 55.69 55.45 58.68 57.78 56.00 53.57 52.01 52.05 50.88 48.38 47.65 46.56 44.83 44.10 44.47 45.39 45.57 45.31 44.83 43.68 43.35 43.00 41.88 41.26 40.87
64.44 64.78 63.58 62.32 62.52 55.93 60.00 60.69 60.41 60.72 59.96 59.80 57.58 50.78 50.74 53.46 55.84 56.93 58.59 57.34 54.75 53.66 53.24 52.75 50.50 48.96 48.52 47.66 46.49 45.42 43.88 43.71 44.36 44.66 44.24 43.73 43.96 42.35 42.66 40.55 41.69 40.32 39.60
64.62 64.24 64.10 63.21 61.87 61.90 61.63 61.16 60.88 53.00 59.96 58.24 56.07 53.75 53.75 57.66 57.80 53.80 52.36 52.76 52.42 51.73 50.15 48.84 47.74 46.10 45.38 44.79 44.75 44.48 43.18 43.56 45.50 45.22 45.41 43.63 42.99 40.68 42.60 41.66 40.28 40.28 38.49
63.65 64.71 64.59 64.17 62.23 61.04 60.64 59.95 59.88 58.82 59.09 58.93 58.01 56.82 58.73 54.62 53.81 52.87 52.44 51.60 50.14 47.26 45.64 45.23 44.89 44.40 43.76 42.96 41.80 39.23 34.50 33.95 38.83 36.05 44.42 44.79 43.55 43.21 41.48 38.92 38.83 39.08 37.27
62.76 63.72 64.10 63.25 63.34 61.31 60.92 60.58 60.34 60.03 59.58 59.92 59.06 59.51 55.84 52.81 52.60 52.24 49.31 45.96 45.16 44.61 44.08 44.15 44.23 43.81 42.80 41.80 39.43 33.90 32.71 32.59 33.94 32.68 40.55 43.26 42.08 39.74 38.19 37.53 38.47 35.94 35.64
MSLP
1007.61 1007.87 1007.99 1008.16 1008.27 1008.50 1008.70 1008.76 1008.99 1009.05 1008.90 1009.09 1009.13 1009.10 1009.22 1009.43 1009.77 1010.41 1010.97 1011.55 1012.15 1012.98 1013.71 1014.35 1014.63 1015.48 1016.01 1016.51 1016.91 1017.47 1017.97 1018.32 1018.92 1019.39 1019.55 1019.97 1020.35 1020.71 1021.34 1021.66 1021.88 1022.34 1022.73
1007.51 1007.86 1008.14 1008.28 1008.49 1008.72 1008.98 1009.10 1009.08 1009.68 1009.62 1009.66 1009.58 1009.72 1009.85 1009.86 1010.48 1010.89 1011.48 1012.12 1012.71 1013.40 1014.01 1014.60 1015.24 1015.74 1016.26 1016.88 1017.28 1017.62 1017.91 1018.00 1018.22 1018.95 1019.54 1019.90 1020.47 1020.88 1021.45 1021.89 1022.01 1022.20 1022.57
1007.30 1007.90 1008.30 1008.48 1008.81 1008.95 1009.12 1009.19 1009.35 1009.78 1010.08 1010.09 1010.14 1010.14 1010.38 1010.55 1010.78 1011.27 1011.83 1012.48 1013.13 1013.75 1014.34 1014.73 1015.36 1015.82 1016.60 1017.16 1017.44 1017.64 1017.75 1017.97 1018.13 1018.81 1019.73 1020.21 1020.74 1021.16 1021.58 1021.77 1021.90 1021.89 1021.69
1007.09 1007.84 1008.45 1008.64 1008.90 1009.00 1009.11 1009.27 1009.54 1009.76 1010.19 1010.58 1010.59 1010.56 1010.67 1010.95 1011.26 1011.71 1012.09 1012.77 1013.38 1013.97 1014.34 1014.52 1015.21 1015.89 1016.47 1017.06 1017.28 1017.44 1017.42 1017.71 1018.28 1019.02 1019.70 1020.40 1020.67 1021.08 1021.35 1021.79 1021.76 1021.32 1021.32
1006.88 1007.75 1008.49 1008.73 1008.88 1008.90 1009.05 1009.31 1009.50 1009.87 1010.11 1010.56 1010.70 1010.74 1011.00 1011.26 1011.62 1011.95 1012.39 1012.91 1013.40 1014.06 1014.51 1015.07 1015.49 1016.16 1016.61 1016.81 1017.07 1017.26 1017.18 1017.56 1018.20 1018.79 1019.59 1020.17 1020.55 1020.73 1021.00 1021.14 1021.29 1021.32 1021.01
1006.72 1007.55 1008.40 1008.77 1008.89 1009.03 1009.21 1009.49 1009.77 1010.00 1010.33 1010.62 1010.86 1011.16 1011.68 1012.09 1012.12 1012.22 1012.61 1013.04 1013.61 1014.10 1014.69 1015.33 1015.96 1016.51 1016.93 1016.96 1016.89 1016.72 1016.79 1017.49 1017.95 1018.39 1019.01 1019.81 1019.96 1020.21 1020.52 1020.78 1020.59 1020.65 1020.79
1006.58 1007.27 1008.07 1008.63 1008.90 1009.23 1009.43 1009.70 1009.95 1010.24 1010.49 1011.03 1011.40 1011.82 1012.18 1012.43 1012.42 1012.65 1012.87 1013.34 1013.82 1014.23 1014.75 1015.42 1016.10 1016.51 1016.75 1016.78 1016.81 1017.06 1017.64 1017.70 1017.75 1017.93 1018.47 1018.87 1019.25 1019.33 1019.62 1020.11 1020.06 1020.14 1019.90
1006.27 1006.84 1007.66 1008.32 1008.79 1009.24 1009.52 1009.87 1010.29 1010.53 1010.90 1011.35 1011.84 1012.24 1012.63 1013.02 1013.11 1013.24 1013.36 1013.59 1013.99 1014.37 1014.77 1015.06 1015.64 1016.10 1016.59 1016.85 1017.18 1017.69 1017.72 1017.67 1017.82 1017.97 1018.40 1018.90 1019.14 1019.33 1019.49 1019.37 1019.29 1019.68 1019.73
1005.84 1006.34 1007.12 1007.83 1008.50 1009.11 1009.51 1010.01 1010.52 1010.83 1011.10 1011.44 1011.95 1012.52 1012.94 1013.38 1013.51 1013.61 1013.62 1013.87 1014.16 1014.47 1014.91 1015.38 1015.94 1016.54 1016.71 1016.79 1017.02 1017.48 1017.64 1017.86 1018.30 1018.55 1018.90 1019.21 1019.40 1019.77 1019.76 1019.71 1019.99 1019.88 1019.82
1005.25 1005.78 1006.57 1007.38 1008.10 1008.87 1009.43 1010.02 1010.54 1010.88 1011.20 1011.37 1011.85 1012.39 1012.96 1013.41 1013.57 1013.71 1013.92 1014.03 1014.48 1014.80 1015.21 1015.61 1015.95 1016.35 1016.73 1016.82 1016.96 1017.40 1017.90 1018.15 1018.09 1018.49 1018.96 1019.43 1019.52 1019.54 1019.49 1019.26 1019.55 1020.26 1020.33
1004.75 1005.32 1006.09 1006.88 1007.78 1008.61 1009.36 1009.99 1010.56 1010.89 1011.12 1011.34 1011.78 1012.22 1012.74 1013.34 1013.85 1014.02 1014.46 1014.75 1014.70 1015.14 1015.42 1015.84 1016.30 1016.56 1016.91 1017.17 1017.55 1017.74 1018.34 1018.26 1018.26 1018.34 1018.68 1018.88 1018.63 1018.59 1018.81 1019.27 1019.54 1019.75 1020.13
1004.28 1004.83 1005.60 1006.54 1007.37 1008.25 1009.20 1009.95 1010.49 1010.80 1010.97 1011.34 1011.61 1012.12 1012.51 1013.23 1013.64 1014.04 1014.50 1014.70 1014.81 1014.69 1015.03 1015.66 1016.51 1016.95 1017.19 1017.58 1017.82 1018.04 1018.08 1018.32 1018.32 1018.36 1018.49 1018.53 1018.41 1019.08 1018.99 1019.12 1019.20 1019.32 1019.42
1003.89 1004.43 1005.32 1006.28 1007.11 1007.93 1008.88 1009.64 1010.28 1010.71 1010.85 1011.18 1011.48 1011.91 1012.30 1012.82 1013.61 1013.94 1014.40 1014.73 1014.95 1015.02 1014.98 1015.34 1016.03 1016.66 1017.11 1017.66 1018.07 1018.35 1018.35 1018.17 1018.29 1018.49 1018.49 1018.63 1018.73 1019.09 1019.09 1019.17 1019.46 1019.52 1019.61
1003.51 1004.16 1005.08 1006.04 1006.89 1007.74 1008.46 1009.23 1009.76 1010.23 1010.57 1010.79 1011.03 1011.40 1011.65 1012.38 1013.21 1013.95 1014.53 1014.90 1015.26 1015.53 1015.78 1016.09 1016.43 1016.97 1017.41 1017.62 1017.93 1018.06 1018.11 1018.09 1017.92 1018.06 1018.46 1018.84 1019.03 1019.41 1019.90 1020.04 1020.14 1020.12 1020.18
1003.07 1003.76 1004.69 1005.64 1006.49 1007.41 1007.91 1008.44 1009.07 1009.48 1009.91 1010.04 1010.28 1010.55 1010.90 1011.61 1012.25 1013.02 1013.73 1014.36 1014.70 1014.91 1015.27 1015.93 1016.36 1016.63 1016.92 1017.10 1017.08 1017.32 1017.41 1017.65 1018.10 1018.50 1018.89 1019.34 1019.68 1020.16 1020.66 1020.71 1020.75 1020.72 1020.84
1002.55 1003.26 1004.04 1004.99 1006.00 1006.64 1007.36 1007.97 1008.55 1008.88 1009.39 1009.91 1009.99 1009.96 1010.12 1010.72 1011.45 1012.41 1013.16 1013.74 1014.16 1014.52 1014.90 1015.15 1015.50 1015.72 1015.93 1016.05 1016.48 1016.96 1017.50 1017.92 1018.27 1018.92 1019.60 1020.26 1020.91 1021.20 1021.39 1021.28 1021.08 1021.22 1021.29
1001.78 1002.58 1003.43 1004.17 1005.15 1005.91 1006.65 1007.23 1008.27 1009.31 1009.51 1009.75 1009.67 1009.89 1009.84 1010.21 1010.80 1011.66 1012.52 1013.27 1013.79 1014.30 1014.56 1014.53 1014.48 1014.65 1014.87 1015.08 1016.33 1017.22 1017.98 1018.48 1018.98 1019.70 1020.58 1020.93 1021.32 1021.40 1021.31 1021.32 1021.56 1021.72 1021.74
1001.05 1001.85 1002.70 1003.50 1004.04 1004.98 1005.61 1006.42 1006.93 1007.91 1008.98 1009.79 1010.03 1010.03 1010.22 1010.40 1010.97 1011.58 1012.47 1013.16 1014.09 1014.24 1014.10 1013.98 1013.86 1014.03 1014.45 1015.40 1016.46 1017.39 1018.26 1019.03 1019.76 1020.29 1020.85 1021.28 1021.72 1021.57 1021.55 1021.83 1021.90 1022.22 1022.28
1000.22 1000.97 1001.83 1002.61 1003.34 1003.93 1004.63 1005.35 1005.96 1006.46 1007.40 1008.39 1009.83 1010.42 1010.96 1011.34 1011.72 1011.98 1011.91 1012.19 1012.88 1013.29 1013.46 1013.44 1013.25 1013.71 1014.69 1015.66 1016.55 1017.46 1018.38 1019.28 1019.95 1020.41 1020.55 1020.31 1020.67 1021.62 1021.58 1022.06 1022.12 1022.30 1022.51
999.24 1000.08 1000.88 1001.61 1002.38 1002.84 1003.49 1003.94 1004.73 1005.31 1005.87 1006.88 1007.88 1009.40 1010.60 1011.34 1011.80 1012.16 1012.18 1011.99 1012.07 1012.12 1012.37 1012.93 1013.48 1014.26 1015.14 1016.28 1017.32 1018.13 1019.16 1019.72 1020.10 1020.32 1020.91 1021.28 1020.68 1021.38 1021.83 1022.05 1022.17 1022.22 1022.42
998.12 999.13 999.96 1000.73 1001.01 1001.73 1002.01 1002.66 1003.15 1003.86 1004.47 1005.17 1006.35 1007.71 1008.70 1009.67 1010.49 1010.83 1011.13 1011.52 1011.65 1011.65 1011.94 1012.58 1013.79 1014.93 1016.03 1017.01 1018.08 1018.83 1019.42 1019.94 1020.44 1020.83 1021.21 1021.13 1021.68 1021.78 1021.88 1022.09 1022.06 1022.15 1022.43
997.45 998.13 999.34 999.93 1000.40 1000.82 1001.12 1001.38 1002.09 1002.59 1003.15 1003.96 1004.91 1006.59 1007.74 1008.59 1009.03 1009.56 1009.90 1010.29 1010.83 1011.57 1012.19 1013.01 1014.14 1015.39 1016.38 1017.35 1018.09 1018.69 1019.51 1020.06 1020.08 1021.00 1020.95 1021.10 1021.44 1021.63 1021.69 1021.81 1021.97 1022.20 1022.31
996.76 997.25 998.03 999.05 999.72 1000.20 1001.17 1001.06 1001.28 1001.67 1002.23 1002.94 1004.31 1006.05 1007.41 1007.73 1007.93 1008.53 1009.22 1009.76 1010.60 1011.62 1012.76 1013.76 1014.78 1015.91 1016.68 1017.40 1018.32 1019.10 1019.67 1020.25 1020.24 1020.43 1020.87 1021.07 1021.25 1021.43 1021.45 1021.81 1021.95 1022.20 1022.49
996.18 996.77 997.15 997.88 998.82 999.53 1000.02 1000.81 1000.96 1001.39 1001.88 1002.83 1003.82 1005.13 1006.28 1007.02 1007.39 1008.06 1009.52 1010.25 1011.19 1012.19 1013.00 1014.10 1015.25 1016.34 1017.06 1017.62 1018.00 1018.87 1019.95 1020.25 1020.28 1020.51 1020.68 1020.96 1021.14 1021.23 1021.42 1021.66 1021.94 1022.10 1022.40
995.90 996.27 996.73 997.26 997.97 998.79 999.47 1000.31 1000.98 1001.23 1001.81 1002.74 1003.92 1004.72 1005.44 1006.59 1008.05 1009.10 1009.69 1010.73 1011.82 1012.80 1013.74 1014.83 1016.11 1017.00 1017.59 1018.20 1019.34 1019.56 1019.89 1020.58 1020.89 1021.06 1020.96 1020.79 1020.96 1021.16 1021.61 1021.86 1022.11 1022.20 1022.28
996.12 996.26 996.42 996.90 997.65 998.47 999.13 999.88 1000.57 1001.23 1001.87 1002.80 1003.41 1004.53 1005.79 1006.81 1008.06 1009.18 1009.74 1010.94 1012.23 1013.49 1014.39 1015.18 1016.46 1017.47 1018.30 1018.95 1019.54 1020.25 1020.76 1021.24 1021.29 1021.24 1021.10 1020.95 1021.00 1021.59 1021.94 1022.00 1022.12 1022.28 1022.53
Wind_Speed
4 4 2 4 4 6 6 4 6 5 6 9 5 6 9 9 10 10 9 10 11 10 9 9 12 10 7 7 6 5 7 4 6 2 4 7 6 7 7 1 6 6 5
5 6 2 5 4 5 6 5 6 8 7 7 7 8 5 9 9 12 10 9 10 10 9 10 9 9 9 7 6 6 7 4 6 11 5 5 4 5 6 5 6 7 7
7 7 3 5 6 3 5 5 7 7 7 8 7 5 8 7 8 9 9 8 9 9 9 11 11 12 10 7 7 5 3 2 4 7 6 3 2 4 4 4 5 6 7
7 8 5 5 5 4 5 4 7 6 8 7 4 6 5 8 9 8 9 8 9 8 8 9 11 11 13 11 7 5 4 8 6 7 6 5 4 5 5 4 4 2 2
8 9 6 5 4 5 5 6 5 7 7 7 5 5 7 6 6 10 10 8 9 10 9 9 9 9 10 7 4 4 6 5 7 5 4 4 4 3 5 4 4 5 6
7 10 8 6 5 4 5 5 6 5 7 6 7 9 7 6 5 9 11 9 7 7 9 8 7 10 6 7 8 7 6 7 5 5 4 5 6 5 5 5 4 4 4
8 10 10 7 7 6 5 5 4 5 6 9 8 7 6 6 12 9 12 7 7 7 9 10 11 8 9 7 9 10 8 10 6 4 5 5 6 7 6 6 5 3 3
9 11 11 10 9 7 6 6 5 4 6 7 9 7 6 4 10 10 9 7 6 7 7 7 7 6 5 7 6 5 4 4 4 4 3 6 5 4 4 1 3 2 3
11 11 12 11 11 8 7 8 5 4 4 5 8 8 6 5 5 8 4 6 6 5 7 6 7 7 7 7 7 6 5 3 6 10 9 7 6 5 4 3 2 2 3
12 11 12 11 11 10 7 8 6 5 5 4 6 8 9 5 1 1 5 3 6 5 6 6 8 8 8 8 1 6 5 4 5 3 2 2 6 8 8 4 2 1 1
12 11 12 10 10 9 8 7 6 5 6 4 6 6 7 8 5 6 5 1 5 5 5 4 4 10 10 10 8 6 3 2 4 2 2 4 5 6 4 4 4 3 1
12 12 12 10 10 9 10 8 7 5 5 4 6 5 5 8 9 6 5 4 7 2 7 5 7 11 11 8 7 7 8 4 2 2 2 2 2 6 2 5 5 3 1
11 10 11 12 9 11 10 9 8 6 5 6 5 5 5 6 5 10 9 6 6 4 4 9 13 9 8 5 9 6 3 1 1 2 0 3 5 6 8 6 6 6 4
11 10 11 12 9 11 9 8 8 8 7 8 7 7 5 7 7 5 5 4 4 6 8 8 8 8 6 5 6 4 4 4 2 3 4 6 4 5 6 3 3 4 3
11 10 12 11 11 10 10 10 10 9 10 7 7 7 6 8 9 11 10 7 5 5 6 5 4 4 5 4 4 5 4 4 3 4 5 5 4 6 5 5 4 3 3
11 10 11 11 10 10 9 8 4 4 13 8 5 5 6 9 19 18 16 14 13 12 2 4 5 5 6 8 7 4 6 7 5 7 7 7 6 5 4 3 1 3 3
12 12 11 11 12 10 10 9 10 3 10 5 8 5 5 10 21 21 18 14 12 10 5 5 4 6 6 5 8 8 8 7 8 7 7 5 4 1 1 2 4 5 4
15 15 11 12 11 12 10 11 9 10 8 6 3 1 6 11 13 18 17 13 5 1 5 4 5 5 5 10 10 9 7 7 7 6 4 3 1 1 4 4 4 4 4
15 13 13 12 11 13 11 11 11 11 11 9 6 2 8 11 11 7 9 8 8 7 6 6 2 8 9 9 8 8 9 7 5 4 4 3 5 2 4 4 4 5 5
15 17 15 12 13 10 13 12 12 11 11 12 11 10 7 5 5 6 5 4 4 6 9 7 8 9 8 9 9 8 7 5 4 4 4 2 4 4 4 3 3 2 1
11 13 14 13 10 14 11 14 12 12 11 12 12 13 19 14 12 11 10 8 7 6 7 10 10 9 9 8 8 7 5 5 5 4 4 5 4 3 1 1 3 4 3
11 12 14 14 13 11 14 10 12 12 13 13 11 11 20 11 11 10 10 8 7 9 8 10 10 9 9 8 8 6 6 5 5 3 4 4 5 3 1 3 3 3 2
10 10 12 13 12 10 12 9 9 10 11 10 9 10 13 11 10 11 8 10 11 11 11 10 11 9 7 7 8 6 7 5 4 3 5 3 3 3 1 1 1 2 2
10 10 10 12 12 12 10 10 9 7 7 10 10 11 10 5 10 14 12 12 12 12 11 11 10 13 10 9 8 8 4 4 3 3 3 3 3 4 2 3 4 4 3
7 6 6 5 9 11 9 7 4 7 9 10 10 11 8 13 12 12 13 12 11 11 12 12 10 12 12 14 10 10 9 9 6 3 2 3 3 4 6 4 4 2 4
8 6 6 6 6 7 8 8 9 6 6 10 12 11 13 13 13 13 13 14 13 12 14 11 13 16 15 12 13 10 8 5 4 4 2 3 4 6 4 4 4 4 4
Wind_Direction
153 98 160 99 78 77 86 73 98 55 73 110 92 70 120 112 114 115 111 110 109 110 113 111 109 116 117 107 109 117 117 117 132 119 129 158 161 144 168 197 151 162 174
154 130 148 106 86 81 95 103 99 86 69 82 105 108 81 112 124 122 131 128 122 122 119 122 122 119 117 119 135 155 170 186 151 146 141 139 120 139 157 169 173 185 188
164 122 142 113 92 77 101 122 110 106 94 79 86 113 115 119 123 106 121 119 115 127 132 135 128 126 142 155 175 190 185 177 140 121 123 109 128 152 170 210 198 220 206
153 135 150 129 138 155 145 133 124 119 113 105 110 102 118 131 124 129 133 130 133 130 129 123 135 148 162 183 194 210 219 133 119 136 145 169 164 172 164 198 222 231 203
159 136 150 138 157 159 132 114 101 124 115 140 159 148 87 91 126 135 133 127 128 133 138 138 155 164 172 199 195 224 166 132 143 149 152 145 162 157 186 201 196 211 235
161 141 157 168 173 132 104 112 117 115 125 119 70 81 81 67 60 117 127 134 126 123 134 132 135 119 132 184 209 90 73 145 163 139 150 167 194 170 189 209 214 207 246
168 150 163 177 156 149 148 137 107 102 95 103 93 91 81 69 45 83 112 108 115 121 129 141 159 157 160 129 90 95 90 90 93 103 147 176 176 185 181 198 219 229 248
184 161 166 176 160 170 155 131 109 100 102 111 111 101 89 64 47 47 103 108 119 124 135 111 114 129 108 128 134 148 131 87 54 59 54 60 68 33 34 281 204 260 282
187 167 169 181 160 171 161 139 140 132 129 124 130 125 115 118 65 55 82 110 110 118 79 85 139 126 127 94 153 153 149 112 78 82 98 109 95 76 70 19 315 349 307
186 178 168 178 164 167 156 148 154 161 160 159 140 143 146 139 185 44 32 118 124 112 108 89 55 124 108 63 121 143 142 173 147 124 107 174 195 181 163 150 130 232 296
190 180 165 166 160 161 147 152 162 175 173 203 151 145 150 152 181 219 109 318 153 154 145 137 109 112 104 79 59 64 95 329 62 90 211 230 195 194 188 171 164 138 67
195 179 165 150 166 160 154 162 171 190 172 198 149 153 152 148 158 213 112 71 11 185 153 153 140 146 135 114 78 96 63 40 35 352 338 324 349 78 84 117 142 158 105
197 173 155 151 168 155 160 166 174 193 198 186 180 183 181 159 159 164 161 129 33 64 34 119 125 121 121 111 132 141 159 158 208 218 30 60 66 50 46 38 44 45 18
193 166 154 156 167 158 167 174 187 187 208 186 197 195 186 165 159 157 160 157 140 114 113 120 151 160 165 134 139 178 200 201 200 77 64 72 74 56 57 34 33 14 7
185 169 161 164 170 166 180 184 196 187 199 191 200 193 179 176 174 167 166 174 169 185 145 135 159 167 181 187 202 168 181 152 104 84 73 71 56 62 43 26 18 7 33
185 177 173 169 175 178 184 189 149 227 170 115 90 200 186 177 155 164 169 171 176 172 165 179 184 192 194 194 180 127 87 98 78 83 70 56 54 46 23 9 354 16 1
190 182 178 180 173 190 186 200 188 61 80 82 121 65 139 165 166 168 169 165 168 143 198 227 213 200 207 120 118 111 97 76 78 72 72 75 74 60 40 338 24 32 22
186 181 187 190 181 189 189 197 190 192 188 180 296 70 102 115 149 140 138 120 132 169 206 238 230 139 97 107 115 112 107 93 84 93 104 92 273 68 36 39 32 30 14
186 188 188 185 204 183 196 192 210 193 192 193 124 99 91 85 97 101 161 162 172 187 204 238 199 109 105 108 108 108 107 108 114 135 171 136 87 58 73 40 46 52 24
186 192 187 197 190 203 193 196 198 213 191 192 185 167 151 129 158 165 204 212 217 205 204 139 112 107 111 106 108 104 112 138 150 138 93 79 92 77 64 51 53 49 299
192 183 187 193 207 199 205 203 198 201 214 193 195 172 168 175 183 188 185 198 215 245 140 121 114 112 102 104 110 120 135 117 92 80 76 88 79 95 108 85 8 26 34
207 188 188 202 203 225 204 209 201 206 205 213 190 166 164 188 188 189 188 186 190 123 112 112 114 114 118 128 135 126 103 101 109 107 116 124 136 117 48 76 16 329 342
198 208 184 198 209 199 237 211 218 209 205 206 138 146 170 184 181 176 161 121 113 108 114 116 113 119 109 102 100 106 118 134 124 118 121 173 125 101 41 176 277 12 345
196 208 207 185 199 209 208 226 207 202 133 133 143 158 166 165 122 117 121 117 116 118 117 124 119 124 118 111 106 95 79 57 106 91 38 98 109 165 279 65 37 360 307
245 203 206 194 180 197 196 189 173 159 151 142 138 150 138 124 121 132 125 123 125 115 109 115 122 120 114 106 94 90 85 72 64 10 355 256 90 34 67 50 349 348 20
230 246 195 187 161 174 194 185 204 184 170 150 150 150 142 135 136 141 129 123 123 123 122 121 120 113 109 100 108 96 83 81 81 50 344 354 59 75 49 350 17 34 15